Location: El Centro
(32.7920°N, 115.5620°W)
Time: 22:22:40
(UTC-07:00)

Hamsat - Visible Passes

Search period start: 26 July 2016 00:00
Search period end: 05 August 2016 00:00
Orbit: 586 x 620 km, 97.6° (Epoch: 26 July)

Date Brightness Start Highest point End Pass type
(mag) Time Alt. Az. Time Alt. Az. Time Alt. Az.
26 Jul ? 04:42:17 10° NNE 04:46:03 33° E 04:49:49 10° SSE visible
27 Jul ? 04:54:06 10° NNE 04:58:07 48° E 05:02:08 10° S visible
28 Jul ? 05:06:02 10° NNE 05:10:10 71° E 05:14:19 10° S visible
29 Jul ? 05:18:03 10° N 05:22:12 80° WNW 05:26:22 10° SSW visible
31 Jul ? 04:08:30 10° ENE 04:10:19 13° E 04:12:07 10° ESE visible
01 Aug ? 04:19:35 10° NE 04:22:26 18° E 04:25:17 10° SE visible
02 Aug ? 04:31:06 10° NE 04:34:32 25° E 04:37:59 10° SSE visible
03 Aug ? 04:42:47 10° NNE 04:46:37 35° E 04:50:27 10° SSE visible
04 Aug ? 04:54:37 10° NNE 04:58:41 50° E 05:02:45 10° S visible
